STARLINK-4107 (53287 NORAD) Tracking and Keplerian Element Data

This shows tracking and keplerian element data for the satellite.

Feedback or suggestion? Click here.




ElementValue
Catalog53287
NameSTARLINK-4107
Epoch Orbit1081
Epoch Day270.25001157
Epoch Year2022
RAAN83.2451
Inclination53.2174
Eccentricity0.0001715
Argument of Perigee34.1148
Mean Anonmoly124.0046
Mean Motion15.63114401
Decay Rate-0.01086097
L11 53287U 22086AX 22270.25001157 -.01086097 00000+0 -12863-1 0 9990
L22 53287 53.2174 83.2451 0001715 34.1148 124.0046 15.63114401 10810

Live tracking and technical data element details for STARLINK-4107 (NORAD 53287). STARLINK-4107 can be tracked NOW for your location showing map with azimuth and elevation plus other details from your city location.

Track the satellite on the map from your city or location and see movement details for azimuth, elevation, latitude, longitude, range, height, and movement on the map or in text.







IsCatalogInMostPopularTable: catalog: 53287, numindb: 4
Update: records affected: 1



GetName: 53287 STARLINK-4107

Hit Count: updated at: Fri, 30 Sep 2022 02:37:12 GMT